Retour au catalogue

ONEWEB-0407

ActifCommunicationsPO
NORAD 50487·PAYLOAD·🇬🇧 United Kingdom

Lancé Dec 27, 2021 depuis Baikonur Cosmodrome

Loading…

Prochains Passages (prochaines 24 heures)

TLE

FraisSource: CelesTrak SupGP

Époque: Sep 14, 2026, 19:27 UTC

1 50487C 21132U   26257.81059444 -.00002312  00000+0 -58725-2 0  2575
2 50487  87.9165 317.6468 0001940  93.7129 303.9262 13.18687276    17

Suivez ONEWEB-0407 en temps réel avec AllMySat

Download on the App Store